#timestamp,LO_Frequency,Hit 
1503162015.3,286047002.7,N
1503162035.2,286047002.5,N
1503162055.9,286047002.6,N
1503162075.7,286047002.6,N
1503162095.5,286047002.0,N
1503162115.4,286046999.7,N
1503162135.2,286047002.3,N
1503162155.0,286047002.0,N
1503162155.9,286047002.0,N
1503162175.8,286046999.8,N
1503162195.6,286047001.9,N
1503162215.4,286047002.2,N
1503162235.3,286047002.7,N
1503162255.1,286047000.9,N
1503162256.0,286047000.9,N
1503162275.8,286046998.3,N
1503162295.7,286046998.5,N
1503162315.5,286047000.6,N
1503162335.3,286047000.7,N
1503162355.2,286047000.4,N
1503162375.9,286047000.9,N
1503162395.7,286047000.4,N
1503162415.5,286047000.4,N
1503162435.4,286046999.9,N
1503162455.2,286046999.9,N
1503162475.0,286047002.7,N
1503162475.9,286047002.7,N
1503162495.8,286047003.8,N
1503162515.6,286047003.7,N
1503162535.4,286047001.8,N
1503162555.3,286047002.4,N
1503162575.1,286047001.8,N
1503162595.8,286047003.0,N
1503162615.7,286047003.7,N
1503162635.5,286047001.7,N
1503162655.3,286047004.4,P
1503162675.2,286047002.2,N
1503162695.9,286047002.2,N
1503162715.7,286047001.6,N
1503162735.6,286046999.8,N
1503162755.4,286047001.0,N
1503162775.2,286046998.3,N
1503162795.1,286046999.3,N
1503162796.0,286046999.3,N
1503162815.8,286047002.8,N
1503162835.6,286047002.0,N
1503162855.5,286047000.6,N
1503162875.3,286047000.2,N
1503162895.1,286047002.3,N
1503162915.8,286047002.5,N
1503162935.7,286047002.0,N
1503162955.5,286047002.0,N
1503162975.3,286047000.2,N
1503162995.2,286046999.8,N
1503163015.9,286047001.2,N
1503163035.7,286046999.8,N
1503163055.6,286046999.8,N
1503163075.4,286047002.4,N
1503163095.2,286047002.3,N
1503163115.1,286047002.8,N
1503163116.0,286047002.8,N
1503163135.8,286047002.5,N
1503163155.6,286047002.2,N
1503163175.5,286047001.9,N
1503163195.3,286046999.8,N
1503163215.1,286047002.0,N
1503163235.9,286047005.6,P
1503163255.7,286047004.0,N
1503163275.5,286047001.7,N
1503163295.4,286047004.0,N
1503163315.2,286047001.8,N
1503163335.0,286047003.6,N
1503163335.9,286047003.6,N
1503163355.7,286047003.4,N
1503163375.6,286047005.9,P
1503163395.4,286047002.1,N
1503163415.3,286046999.8,N
1503163435.1,286047001.9,N
1503163436.0,286047001.9,N
1503163455.8,286047002.8,N
1503163475.6,286047002.7,N
1503163495.5,286046999.7,N
1503163515.3,286047002.8,N
1503163535.1,286046999.7,N
1503163555.9,286047001.0,N
1503163575.7,286047000.8,N
1503163595.5,286047000.4,N
1503163615.4,286047002.3,N
1503163635.2,286047000.2,N
1503163655.0,286047000.4,N
1503163655.9,286047000.4,N
1503163675.8,286047000.2,N
1503163695.6,286047002.8,N
1503163715.4,286047002.7,N
1503163735.3,286047002.6,N
1503163755.1,286047002.1,N
1503163756.0,286047002.1,N
1503163775.8,286047004.2,N
1503163795.6,286047001.5,N
1503163815.5,286047001.8,N
1503163835.3,286047002.2,N
1503163855.1,286046999.8,N
1503163875.9,286047001.9,N
1503163895.7,286047002.0,N
1503163915.5,286047003.0,N
1503163935.4,286047005.6,P
1503163955.2,286047000.1,N
1503163975.0,286047002.8,N
1503163975.9,286047002.8,N
1503163995.8,286047002.3,N
1503164015.6,286047002.8,N
1503164035.4,286046998.1,N
1503164055.3,286047000.2,N
1503164075.1,286047004.7,N
1503164076.0,286047004.7,N
1503164095.8,286047008.1,P
1503164115.7,286047010.5,P
1503164135.5,286047009.6,N
1503164155.3,286047006.6,N
1503164175.2,286047007.6,N
1503164195.9,286047005.2,N
1503164215.7,286047009.0,P
1503164235.6,286046998.4,N
1503164255.4,286046997.0,N
1503164275.2,286046998.0,N
1503164295.1,286046997.9,N
1503164296.0,286046997.9,N
1503164315.8,286046995.7,N
1503164335.6,286046995.2,N
1503164355.5,286046995.9,N
1503164375.3,286046995.0,N
1503164395.1,286046998.0,N
1503164415.8,286046996.2,N
1503164435.7,286046995.9,N
1503164455.5,286046994.6,N
1503164475.3,286046996.2,N
1503164495.2,286046995.2,N
1503164515.9,286046997.1,N
1503164535.7,286046997.8,N
1503164555.6,286046995.4,N
1503164575.4,286046999.5,N
1503164595.2,286047002.6,N
1503164615.1,286046999.7,N
1503164616.0,286046999.7,N
1503164635.8,286047001.2,N
1503164655.6,286046997.8,N
1503164675.4,286046997.7,N
1503164695.3,286046998.9,N
1503164715.1,286046999.5,N
1503164735.8,286046995.3,N
1503164755.7,286046996.7,N
1503164775.5,286046996.8,N
1503164795.3,286046999.0,N
1503164815.2,286046997.1,N
1503164835.9,286046997.7,N
1503164855.7,286046998.0,N
1503164875.6,286046995.3,N
1503164895.4,286046997.6,N
1503164915.2,286046998.2,N
1503164935.1,286047000.2,N
1503164936.0,286047000.2,N
1503164955.8,286047000.5,N
1503164975.6,286047000.8,N
1503164995.4,286046999.1,N
1503165015.3,286046996.8,N
1503165035.1,286046998.3,N
1503165055.8,286046996.8,N
1503165075.7,286046996.5,N
1503165095.5,286046999.6,N
1503165115.3,286046998.6,N
1503165135.2,286046999.6,N
1503165155.9,286046997.2,N
1503165175.7,286046997.1,N
1503165195.6,286046998.7,N
1503165215.4,286046999.6,N
1503165235.2,286046996.5,N
1503165255.1,286046998.3,N
1503165256.0,286046998.3,N
1503165275.8,286047001.0,N
1503165295.6,286046999.1,N
1503165315.4,286047000.5,N
1503165335.3,286047001.2,N
1503165355.1,286047001.0,N
1503165375.8,286047000.9,N
1503165395.7,286047002.7,N
1503165415.5,286046999.7,N
1503165435.3,286047002.6,N
1503165455.2,286047002.7,N
1503165475.9,286046999.8,N
1503165495.7,286047004.2,N
1503165515.6,286047004.4,N
1503165535.4,286047003.1,N
1503165555.2,286047002.0,N
1503165575.1,286047000.4,N
1503165576.0,286047000.4,N
1503165595.8,286047001.6,N
